Location: Plymouth
(43.7570°N, 71.6890°W)
Time: 09:45:10
(UTC-05:00)

Daily predictions for brighter satellites

Satellite Brightness Start Highest point End
(mag) Time Altitude Azimuth Time Altitude Azimuth Time Altitude Azimuth
Cosmos 2237 Rocket 2.2 17:09:04 10° SSW 17:14:39 71° ESE 17:20:18 10° NNE
Cosmos 2369 Rocket 4.0 17:15:02 10° NNE 17:16:12 11° NE 17:17:22 10° NE
SJ-12 4.3 17:13:04 10° S 17:17:12 73° WSW 17:21:20 10° NNW
Cosmos 2151 3.1 17:14:00 10° S 17:18:06 55° E 17:22:13 10° NNE
YAOGAN 1 2.5 17:13:58 10° SSE 17:18:17 81° ENE 17:22:39 10° N
COSMO-SKYMED 1 3.4 17:14:39 10° NE 17:18:31 30° E 17:22:20 10° SSE
BREEZE-M DEB (TANK) 3.4 17:17:38 10° SSW 17:19:47 23° SE 17:21:50 10° E
Cosmos 1300 2.6 17:16:09 10° N 17:19:59 73° E 17:23:49 10° SSE
Meteor 1-27 4.4 17:14:54 10° N 17:20:38 56° ENE 17:26:21 10° SSE
Thor Agena Rocket 3.6 17:15:37 10° NNE 17:20:51 67° ESE 17:25:58 10° S
AQUARIUS 4.4 17:18:08 10° S 17:22:37 78° WSW 17:27:09 10° NNW
SL-16 R/B 2.8 17:18:07 10° S 17:23:13 36° ESE 17:28:19 10° NE
MONITOR-E 4.5 17:20:56 10° SSE 17:23:59 46° ENE 17:27:03 10° N
Meteor 2-10 4.1 17:19:44 10° N 17:24:47 58° ENE 17:29:58 10° SSE
COSMOS 2428 4.1 17:19:58 10° WSW 17:25:12 36° NW 17:30:27 10° N
SPOT 3 Rocket 3.7 17:20:46 10° SSE 17:25:55 85° WSW 17:31:09 10° NNW
Cosmos 44 Rocket 4.2 17:22:12 10° SW 17:27:10 50° NW 17:32:04 10° NNE
CZ-3A R/B 3.0 17:24:39 10° NW 17:30:00 48° NNE 17:34:57 10° ESE
CZ-4C R/B 4.4 17:30:25 10° NNW 17:33:54 15° NNE 17:37:35 10° NE
Cosmos 2297 3.7 17:29:04 10° NNW 17:34:45 63° ENE 17:40:25 10° SE
SL-14 R/B 3.3 17:32:20 10° S 17:36:16 89° WSW 17:40:19 10° N
FREGAT/IRIS 4.3 17:34:36 10° ESE 17:36:27 15° ENE 17:38:19 10° NNE
Cosmos 1484 Rocket 2.8 17:34:21 10° SSE 17:38:17 73° ENE 17:42:18 10° N
Cosmos 304 Rocket 3.9 17:33:36 10° S 17:38:17 55° ESE 17:43:00 10° NNE
Resurs 01 Rocket 3.2 17:35:56 10° E 17:38:25 15° ENE 17:40:53 10° NNE
Cosmos 1340 Rocket 2.8 17:36:17 10° S 17:40:09 58° E 17:44:02 10° NNE
Cosmos 2279 Rocket 4.0 17:36:58 10° N 17:43:13 77° E 17:49:27 10° SSE
Meteor 1-28 Rocket 3.7 17:41:21 10° NNE 17:44:50 37° E 17:48:19 10° SSE
Lacrosse 4 Rocket 2.2 17:41:58 10° N 17:45:30 28° NE 17:48:48 11° ESE
Cosmos 1151 Rocket 3.9 17:41:54 10° NNW 17:46:05 54° W 17:50:16 10° S
METEOR-M 4.4 17:46:08 10° SE 17:51:10 44° ENE 17:56:14 10° N
IDEFIX/ARIANE 42P 4.2 17:48:05 10° SSW 17:52:55 38° W 17:57:47 10° NNW
Cosmos 1869 4.3 17:50:11 10° NNE 17:53:38 26° ENE 17:57:02 10° SE
Cosmos 540 Rocket 4.2 17:50:15 10° SW 17:55:19 54° WNW 18:00:24 10° NNE
Aureole 2 Rocket 3.3 17:51:39 10° SSW 17:55:25 59° WNW 17:59:31 10° NNE
USA 215 3.4 17:53:31 10° ESE 17:59:53 56° NNE 18:06:16 10° NW
NOAA 12 4.1 17:54:49 10° SSE 17:59:55 55° ENE 18:05:05 10° N
Cosmos 773 Rocket 4.4 17:55:57 10° S 18:00:43 39° ESE 18:04:53 14° NE
Cosmos 2058 3.4 17:58:12 10° SSW 18:02:15 61° W 18:06:20 10° N
Nadezhda 4 Rocket 4.1 17:57:58 10° SSE 18:04:01 55° E 18:10:11 10° NNE
ATLAS 5 CENTAUR R/B 3.9 18:00:38 10° NNW 18:04:13 17° NNE 18:05:48 15° NE
Lacrosse 5 3.7 18:02:19 10° NW 18:05:48 18° N 18:08:06 14° NE
Cosmos 1805 Rocket 3.5 18:01:24 10° S 18:05:52 84° E 18:10:21 10° N
SKYMED 2 3.6 18:02:22 10° N 18:06:44 82° WNW 18:11:04 10° SSW
Cosmos 2242 Rocket 4.0 18:02:45 10° N 18:06:56 40° ENE 18:11:07 10° SSE
Cosmos 1461 2.9 18:04:52 10° SW 18:09:03 78° NW 18:12:04 17° NNE
Cosmos 1626 2.0 18:11:14 10° S 18:14:58 84° E 18:18:44 10° N
Aureole 1 Rocket 4.0 18:11:53 10° S 18:17:16 56° ESE 18:24:19 10° NNE
Sich 1 2.9 18:14:30 10° S 18:18:55 75° E 18:23:21 10° NNE
Cosmos 2219 Rocket 4.2 18:16:20 10° WSW 18:20:53 25° NW 18:25:26 10° N
Lacrosse 5 rocket 4.1 18:18:14 10° W 18:20:55 18° SW 18:23:41 10° S
Cosmos 1943 Rocket 3.9 18:19:01 10° N 18:21:10 15° NNE 18:21:10 15° NNE
Cosmos 1356 Rocket 3.3 18:18:18 10° S 18:22:17 85° W 18:26:19 10° N
ALOS 2.5 18:20:16 10° SE 18:24:41 44° ENE 18:29:06 10° N
Cosmos 1092 Rocket 4.0 18:20:11 10° S 18:26:22 59° E 18:32:35 10° NNE
Cosmos 2333 Rocket 4.0 18:22:53 10° WSW 18:27:39 27° NW 18:32:27 10° N
Cosmos 1603 3.9 18:22:39 10° S 18:27:57 44° ESE 18:30:07 31° ENE
Cosmos 1633 Rocket 2.9 18:24:50 10° S 18:29:14 85° E 18:33:40 10° N
FengYun 1-2 T 4.2 18:25:20 10° SSE 18:30:44 56° ENE 18:36:07 10° N
CENTAUR R/B 4.4 18:29:40 10° WNW 18:34:41 22° NNW 18:40:12 10° NNE
Cosmos 292 Rocket 3.9 18:30:23 10° S 18:34:55 46° ESE 18:35:32 44° E
Coronas F rocket 3.5 18:32:56 10° SSW 18:33:36 17° SSW 18:33:36 17° SSW
Cosmos 1455 2.7 18:31:56 10° NNW 18:35:42 61° W 18:39:27 10° S
USA 229 DEB 3.6 18:36:29 10° SSW 18:43:18 75° ESE 18:47:09 29° NE
USA 229 3.6 18:36:35 10° SSW 18:43:25 74° ESE 18:47:12 29° NE
Abrixas 4.0 18:40:51 10° WNW 18:42:57 30° NW 18:42:57 30° NW
Cosmos 1242 Rocket 4.3 18:43:30 10° N 18:44:49 21° N 18:44:49 21° N
Cosmos 1184 Rocket 3.8 18:44:08 10° SSW 18:47:21 46° WNW 18:48:42 28° NNW
SJ-6B 3.5 18:45:12 10° S 18:49:13 57° W 18:53:20 10° NNW
Cosmos 2195 Rocket 4.4 18:43:38 10° S 18:49:35 58° E 18:55:38 10° NNE
Spot 2 Rocket 3.3 18:44:45 10° SSE 18:49:45 71° ENE 18:54:47 10° N
Cosmos 1862 Rocket 3.9 18:46:38 10° N 18:49:59 48° NNE 18:49:59 48° NNE
Orbus 7S? 4.4 18:47:19 10° NW 18:51:39 88° NE 19:00:10 15° SE
Iridium 4 Rocket 3.0 18:49:31 10° S 18:53:58 81° W 18:57:11 17° N
SL-19 R/B 4.3 18:51:22 10° SSE 18:57:12 82° WSW 19:02:50 10° NNW
Cosmos 2237 Rocket 4.4 18:55:06 10° W 18:59:19 21° NW 19:03:32 10° N
Cosmos 2369 Rocket 2.5 18:56:09 10° NNW 19:01:00 48° NE 19:01:00 48° NE
H-2A ROCKET BODY 4.1 18:48:52 10° WSW 19:05:45 30° SSW 19:09:18 19° SSE
SL-16 R/B 3.5 19:02:07 10° WSW 19:07:17 36° NW 19:11:54 13° N
Cosmos 1417 Rocket 4.3 19:07:07 10° N 19:13:16 67° ENE 19:13:16 67° ENE
Resurs 01 Rocket 2.0 19:12:15 29° S 19:14:23 63° WSW 19:18:49 10° NNW
Cosmos 923 Rocket 4.2 19:10:26 10° SSW 19:15:36 67° WNW 19:17:00 47° N
Cosmos 1933 Rocket 4.0 19:12:31 10° SSW 19:16:31 61° WSW 19:16:31 61° WSW
Cosmos 1680 Rocket 3.5 19:16:48 10° SSW 19:22:01 76° WNW 19:22:05 76° WNW
Cosmos 1655 Rocket 3.9 19:16:56 10° S 19:23:17 79° E 19:24:06 68° NE
Lacrosse 4 Rocket 3.2 19:20:39 10° NW 19:24:10 28° WSW 19:25:17 25° SW
CZ-4C R/B 3.8 19:18:37 10° NNW 19:23:28 30° NNE 19:23:28 30° NNE
Cosmos 1627 Rocket 4.5 19:19:32 10° SSW 19:25:43 77° W 19:31:52 10° N
FENGYUN 3A 4.5 19:25:41 10° S 19:30:51 48° W 19:36:04 10° NNW
NOSS 3-1 (C) 4.0 19:29:08 10° SSW 19:32:51 42° S 19:32:51 42° S
USA 215 3.8 19:40:52 38° S 19:42:55 51° SW 19:49:18 10° WNW
ATLAS 3B R/B 4.2 19:42:18 10° NNW 19:45:53 22° N 19:45:53 22° N
Lacrosse 5 4.0 19:45:38 10° NW 19:47:19 19° NNW 19:47:19 19° NNW
ATLAS 5 CENTAUR R/B 3.7 19:44:26 10° NNW 19:47:23 30° NNW 19:47:23 30° NNW
Cosmos 1943 Rocket 4.2 20:01:18 10° NNW 20:02:44 19° NNW 20:02:44 19° NNW
